Flight Track Log - Related Links

Times and Time Zones

All times are in EDT time to prevent confusion due to time zone crossing. See the N561EJ flight status page for this flight to view local times or setup timezone preferences in your user account.

Time Position Orientation Groundspeed Altitude Reporting Facility
EDT Latitude Longitude Course Direction KTS MPH feet Rate Location/Type
04:55PM 33.5661 -86.7536 66° East 148 170 1,300  Level Atlanta Center
04:56PM 33.5883 -86.6944 66° East 220 253 3,500 2,364 Climbing Atlanta Center
04:57PM 33.5575 -86.6711 148° Southeast 228 262 5,200 2,485 Climbing Atlanta Center
04:58PM 33.4889 -86.6567 170° South 212 244 7,600 2,467 Climbing Atlanta Center
05:00PM 33.3453 -86.6397 174° South 260 299 12,600 2,533 Climbing Atlanta Center
05:01PM 33.2739 -86.6553 190° South 260 299 15,200 2,400 Climbing Atlanta Center
05:02PM 33.2047 -86.6681 189° South 255 293 17,400 1,900 Climbing Atlanta Center
05:03PM 33.1397 -86.6783 188° South 260 299 19,000 1,750 Climbing Atlanta Center
05:04PM 33.0644 -86.6933 189° South 265 305 20,900 1,500 Climbing Atlanta Center
05:05PM 32.9889 -86.7061 188° South 270 311 22,000 550 Climbing Atlanta Center
05:06PM 32.8989 -86.7256 190° South 299 344 22,000  Level Atlanta Center
05:07PM 32.8044 -86.7400 187° South 330 380 22,000  Level Atlanta Center
05:08PM 32.7061 -86.7567 188° South 350 403 22,000  Level Atlanta Center
05:09PM 32.6117 -86.7761 190° South 356 410 22,000  Level Atlanta Center
05:10PM 32.5133 -86.7903 187° South 356 410 22,000  Level Atlanta Center
05:11PM 32.4211 -86.8044 187° South 351 404 22,000  Level Atlanta Center
05:12PM 32.3231 -86.8089 182° South 351 404 22,000  Level Atlanta Center
05:13PM 32.2225 -86.8156 183° South 357 411 22,000  Level Atlanta Center
05:14PM 32.1244 -86.8175 181° South 357 411 22,000  Level Atlanta Center
05:15PM 32.0242 -86.8242 183° South 357 411 22,000  Level Atlanta Center
05:16PM 31.9236 -86.8358 186° South 362 417 22,000  Level Atlanta Center
05:17PM 31.8308 -86.8744 199° South 362 417 22,000  Level Atlanta Center
05:18PM 31.7542 -86.9500 220° Southwest 357 411 22,000  Level Atlanta Center
05:19PM 31.6789 -87.0403 226° Southwest 362 417 22,000  Level Atlanta Center
05:20PM 31.6125 -87.1114 222° Southwest 341 392 22,000 -708 Level Atlanta Center
05:22PM 31.4936 -87.2444 224° Southwest 302 348 19,900 -1,467 Descending Houston Center
05:23PM 31.4353 -87.3169 227° Southwest 304 350 17,600 -1,984 Descending Houston Center
05:24PM 31.3742 -87.3972 228° Southwest 327 376 15,800 -1,694 Descending Houston Center
05:25PM 31.3089 -87.4769 226° Southwest 337 388 14,100 -1,694 Descending Houston Center
05:26PM 31.2494 -87.5519 227° Southwest 318 366 12,300 -1,488 Descending Houston Center
05:27PM 31.1933 -87.6236 228° Southwest 302 348 11,000 -672 Descending Houston Center
05:28PM 31.1303 -87.7008 226° Southwest 277 319 10,900 -48 Descending Houston Center
05:29PM 31.0786 -87.7669 228° Southwest 277 319 10,900 -726 Level Houston Center
05:30PM 31.0253 -87.8333 227° Southwest 279 321 9,400 -1,500 Descending Houston Center
05:31PM 30.9639 -87.8814 214° Southwest 268 308 7,800 -1,597 Descending Houston Center
05:32PM 30.9003 -87.9158 205° Southwest 254 292 6,100 -1,645 Descending Houston Center
05:33PM 30.8411 -87.9442 202° Southwest 241 277 4,400 -1,016 Descending Houston Center
05:34PM 30.7878 -87.9708 203° Southwest 223 257 4,000 -624 Descending Houston Center
05:35PM 30.7269 -87.9997 202° Southwest 206 237 3,100 -480 Descending Houston Center
05:36PM 30.6772 -88.0247 203° Southwest 199 229 3,000 -290 Descending Houston Center
05:37PM 30.6278 -88.0481 202° Southwest 195 224 2,500 -484 Descending Houston Center
05:38PM 30.6297 -88.1150 272° West 221 254 2,000 -323 Descending Houston Center
05:40PM 30.6322 -88.1942 272° West 189 217 1,500 -452 Descending Houston Center
05:41PM 30.6711 -88.2272 324° Northwest 161 185 600 -581 Descending Houston Center
05:42PM 30.6983 -88.2497 325° Northwest 152 175 300 -290 Descending Houston Center
05:44PM 30.6914 -88.2428 139° Southeast  Level Estimated
05:51PM 30.6914 -88.2428 221° Southwest  Level Estimated

Login

Don't have an account? Register now (free) for customized features, flight alerts, and more!